EHI
0 0 0 0 0 0 0 0 0 0 0 0 0 0 0 0 0 0 0 0 0 0 0 0 0 0 0 0 0 0 0 0 0 0 0 0 0 0 0 0 0 0 0 0
0 0 0 0 0 0 0 0 0 0 0 0 0 0 0 0 0 0 0 0 0 0 0 0 0 0 0 0 0 0 0 0 0 0 0 0 0 0 0 0 0 0 0 0
0 0 0 0 0 0 0 0 0 0 0 0 0 0 0 0 0 0 0 0 0 0 0 0 0 0 0 0 0 0 0 0 0 0 0 0 0 0 0 0 0 0 0 0
0 0 0 0 0 0 0 0 0 0 0 0 0 0 0 0 0 0 0 0 0 0 0 0 0 0 0 0 0 0 0 0 0 0 0 0 0 0 0 0 0 0 0 0
0 0 0 0 0 0 0 0 0 0 0 0 0 0 0 0 0 0 0 0 0 0 0 0 0 0 0 0 0 0 0 0 0 0 0 0 0 0 0 0 0 0 0 0
0 0 0 0 0 0 0 0 0 0 0 0 0 0 0 0 0 0 0 0 0 0 0 0 0 0 0 0 0 0 0 0 0 0 0 0 0 0 0 0 0 0 0 0
0 0 0 0 0 0 0 0 0 0 0 0 0 0 0 0 0 0 0 0 0 0 0 0 0 0 0 0 0 0 0 0 0 0 0 0 0 0 0 0 0 0 0 0
0 0 0 0 0 0 0 0 0 0 0 0 0 0 0 0 0 0 0 0 0 0 0 0 0 0 0 0 0 0 0 0 0 0 0 0 0 0 0 0 0 0 0 0
0 0 0 0 0 0 0 0 0 0 0 0 0 0 0 0 0 0 0 0 0 0 0 0 0 0 0 0 0 0 0 0 0 0 0 0 0 0 0 0 0 0 0 0
0 0 0 0 0 0 0 0 0 0 0 0 0 0 0 0 0 0 0 0 0 0 0 0 0 0 0 0 0 0 0 0 0 0 0 0 0 0 0 0 0 0 0 0
0 0 0 0 0 0 0 0 0 0 0 0 0 0 0 0 0 0 0 0 0 0 0 0 0 0 0 0 0 0 0 0 0 0 0 0 0 0 0 0 0 0 0 0
0 0 0 0 0 0 0 0 0 0 0 0 0 0 0 0 0 0 0 0 0 0 0 0 0 0 0 0 0 0 0 0 0 0 0 0 0 0 0 0 0 0 0 0
0 0 0 0 0 0 0 0 0 0 0 0 0 0 0 0 0 0 0 0 0 0 0 0 0 0 0 0 0 0 0 0 0 0 0 0 0 0 0 0 0 0 0 0
0 0 0 0 0 0 0 0 0 0 0 0 0 0 0 0 0 0 0 0 0 0 0 0 0 0 0 0 0 0 0 0 0 0 0 0 0 0 0 0 0 0 0 0
0 0 0 0 0 0 0 0 0 0 0 0 0 0 0 0 0 0 0 0 0 0 0 0 0 0 0 0 0 0 0 0 0 0 0 0 0 0 0 0 0 0 0 0
0 0 0 0 0 0 0 0 0 0 0 0 0 0 0 0 0 0 0 0 0 0 0 0 0 0 0 0 0 0 0 0 0 0 0 0 0 0 0 0 0 0 0 0
0 0 0 0 0 0 0 0 0 0 0 0 0 0 0 0 0 0 0 0 0 0 0 0 0 0 0 0 0 0 0 0 0 0 0 0 0 0 0 0 0 0 0 0
0 0 0 0 0 0 0 0 0 0 0 0 0 0 0 0 0 0 0 0 0 0 0 0 0 0 0 0 0 0 0 0 0 0 0 0 0 0 0 0 0 0 0 0
0 0 0 0 0 0 0 0 0 0 0 0 0 0 0 0 0 0 0 0 0 0 0 0 0 0 0 0 0 0 0 0 0 0 0 0 0 0 0 0 0 0 0 0
0 0 0 0 0 0 0 0 0 0 0 0 0 0 0 0 0 0 0 0 0 0 0 0 0 0 0 0 0 0 0 0 0 0 0 0 0 0 0 0 0 0 0 0
0 0 0 0 0 0 0 0 0 0 0 0 0 0 0 0 0 0 0 0 0 0 0 0 0 0 0 0 0 0 0 0 0 0 0 0 0 0 0 0 0 0 0 0
0 0 0 0 0 0 0 0 0 0 0 0 0 0 0 0 0 0 0 0 0 0 0 0 0 0 0 0 0 0 0 0 0 0 0 0 0 0 0 0 0 0 0 0
0 0 0 0 0 0 0 0 0 0 0 0 0 0 0 0 0 0 0 0 0 0 0 0 0 0 0 0 0 0 0 0 0 0 0 0 0 0 0 0 0 0 0 0
0 0 0 0 0 0 0 0 0 0 0 0 0 0 0 0 0 0 0 0 0 0 0 0 0 0 0 0 0 0 0 0 0 0 0 0 0 0 0 0 0 0 0 0
0 0 0 0 0 0 0 0 0 0 0 0 0 0 0 0 0 0 0 0 0 0 0 0 0 0 0 0 0 0 0 0 0 0 0 0 0 0 0 0 0 0 0 0
0 0 0 0 0 0 0 0 0 0 0 0 0 0 0 0 0 0 0 0 0 0 0 0 0 0 0 0 0 0 0 0 0 0 0 0 0 0 0 0 0 0 0 0
Wind_Speed
0 3 6 7 9 10 9 9 11 9 4 7 11 12 11 7 6 7 7 6 6 5 4 3 2 3 4 4 5 5 6 6 5 4 4 4 3 2 2 3 4 4 3 3
2 4 6 5 6 7 9 10 11 8 4 7 9 12 10 8 8 8 8 7 6 5 3 3 3 3 4 5 5 6 6 6 6 4 4 3 4 3 2 3 3 3 3 3
4 3 4 4 4 7 10 11 10 8 6 6 8 12 11 8 7 6 6 6 6 5 5 4 4 4 4 4 5 5 6 6 6 5 4 4 3 3 2 3 3 3 3 4
2 4 4 4 5 7 9 7 9 8 8 6 6 10 9 8 7 6 6 5 5 5 4 4 4 3 4 4 4 5 6 6 6 6 6 7 5 5 3 3 3 4 3 4
2 4 4 5 6 6 6 6 7 8 8 8 8 9 8 4 7 7 6 5 5 4 4 4 4 4 3 3 4 4 6 6 6 6 6 6 5 4 3 4 5 4 4 4
3 4 4 4 5 4 4 4 5 6 6 10 10 10 8 4 6 6 5 4 4 3 4 4 3 3 3 3 4 4 6 6 6 6 6 6 6 6 5 5 4 4 3 3
3 2 3 3 4 3 3 3 3 5 7 8 4 8 6 2 3 3 3 3 3 2 3 3 2 3 3 3 4 5 6 6 6 6 6 5 6 6 6 5 4 4 3 3
3 3 2 3 3 4 4 5 5 6 6 5 5 9 3 1 2 2 2 2 2 2 2 2 2 3 4 4 5 5 6 6 6 6 6 5 5 4 4 5 4 4 3 4
3 3 3 4 4 3 2 3 3 4 4 7 6 5 4 1 2 2 2 2 2 2 2 2 2 2 3 4 4 5 6 6 6 6 6 5 5 5 4 4 4 4 3 3
2 5 4 4 2 1 3 1 2 3 5 7 6 7 4 3 2 1 1 2 2 2 2 2 2 2 2 2 3 3 4 5 5 5 5 4 4 4 4 4 4 4 4 4
2 3 3 2 2 3 1 2 3 3 4 6 6 3 0 3 2 2 3 2 2 3 3 3 3 2 1 1 1 2 4 4 4 4 4 4 4 4 4 3 4 4 4 4
1 2 4 4 2 3 3 3 3 4 5 5 6 3 3 1 2 2 3 3 3 3 3 3 2 2 2 1 1 1 2 3 3 3 4 4 3 3 4 4 4 4 4 4
1 2 4 3 3 2 2 3 3 2 3 5 7 4 2 2 3 3 4 4 3 3 3 3 2 2 2 1 1 1 2 2 2 3 3 3 4 4 4 4 4 4 4 4
2 3 6 8 6 3 5 6 5 5 6 7 9 10 8 6 6 6 5 5 4 3 3 3 3 3 2 2 2 2 2 2 2 2 3 3 4 4 4 4 4 4 4 4
2 4 6 8 8 7 8 9 8 10 10 10 9 10 10 8 7 7 5 5 4 4 4 4 4 3 3 2 2 2 2 2 2 3 3 4 3 3 3 3 3 4 4 4
1 3 3 6 6 6 9 10 11 11 10 11 12 12 7 6 5 5 5 4 4 4 4 4 4 4 3 3 3 3 3 2 2 3 3 3 3 3 3 3 3 4 4 4
3 3 4 5 3 5 8 7 8 6 6 6 9 7 5 6 5 6 5 5 6 6 5 5 4 4 4 4 4 4 3 3 2 3 3 3 3 3 3 3 3 4 4 4
4 4 3 4 3 7 2 1 3 4 4 5 6 7 6 7 7 6 5 5 5 6 6 5 5 5 5 4 4 4 3 3 2 3 3 2 3 3 3 3 3 3 3 4
4 5 3 3 5 7 3 1 2 4 5 3 5 6 6 6 4 3 3 4 5 6 6 5 5 5 5 5 4 3 3 2 2 2 3 2 3 3 3 3 3 3 3 3
1 3 4 4 6 7 2 1 1 3 5 1 3 4 4 3 4 3 4 6 6 6 5 5 5 5 4 4 3 2 2 2 2 3 3 2 2 3 3 3 3 3 3 3
2 3 5 6 7 7 1 0 2 4 3 2 3 3 3 4 5 5 6 6 6 6 6 5 5 4 4 3 2 2 2 3 3 3 2 2 2 3 3 2 2 2 2 3
5 4 5 5 6 6 2 2 4 4 3 3 4 4 5 6 7 6 6 7 7 7 6 5 4 4 4 3 2 3 3 3 2 2 2 2 2 2 1 2 2 2 3 3
5 5 3 6 5 2 3 3 3 2 4 5 5 5 5 6 7 7 6 6 6 6 5 5 4 5 4 3 2 3 4 3 2 1 1 1 1 1 1 2 2 2 3 3
3 2 4 6 7 6 5 5 5 5 6 6 5 5 5 6 7 7 6 5 5 5 4 4 4 4 4 3 3 3 3 2 2 1 1 1 1 1 1 1 2 2 3 3
3 3 4 7 7 6 5 6 6 6 6 6 6 5 5 5 6 6 5 5 4 4 4 3 4 4 5 4 4 3 3 2 1 1 1 1 1 1 1 1 1 2 3 3
4 6 6 6 4 5 6 5 5 6 6 6 6 5 4 4 5 5 5 4 4 4 4 4 4 4 4 4 3 3 2 1 1 1 1 1 1 1 1 1 1 2 3 3
Wind_Direction
248 223 238 242 241 256 260 255 256 259 257 246 245 251 252 241 237 243 242 237 237 237 242 230 211 196 190 184 183 177 170 169 166 165 161 150 154 147 148 139 134 134 129 134
217 244 271 276 257 252 250 253 261 263 255 253 258 260 256 243 240 244 246 244 243 242 234 222 205 186 187 188 186 181 176 172 175 176 171 163 160 155 152 137 129 132 135 135
247 314 305 276 265 253 252 254 260 264 270 245 267 259 243 238 240 250 251 250 248 243 233 220 207 193 185 187 188 184 178 176 176 170 159 143 141 144 151 153 145 148 142 138
282 303 299 285 279 270 261 269 267 259 252 248 244 266 244 240 237 245 254 253 253 247 241 230 220 210 198 196 187 184 176 176 175 173 166 161 166 165 170 169 153 145 148 143
295 308 299 284 285 279 271 281 265 255 251 254 239 251 257 233 247 253 256 258 256 254 241 232 226 220 212 200 190 183 176 174 174 173 170 173 173 166 157 159 151 150 153 153
294 308 315 294 296 280 274 271 258 244 241 245 235 236 256 227 249 257 258 266 273 264 250 236 228 219 207 192 186 182 178 175 174 171 172 177 175 168 159 160 160 159 157 159
309 305 319 304 294 281 282 260 250 231 225 240 217 236 251 290 279 266 268 283 294 277 258 246 225 214 209 195 188 186 180 177 175 173 176 182 182 177 171 169 171 169 167 167
306 302 352 333 297 275 263 254 246 256 253 256 222 234 236 25 337 327 314 315 332 318 293 268 241 216 208 203 198 192 186 181 179 179 180 181 183 186 181 176 172 178 181 179
298 296 330 318 316 283 260 250 284 271 276 266 243 243 241 219 339 346 332 332 332 335 323 289 264 229 216 209 205 200 188 186 186 187 183 184 181 184 182 178 181 184 183 178
280 283 302 309 275 349 293 260 241 240 250 252 248 243 249 253 281 300 315 316 322 344 342 326 302 284 241 228 219 204 191 188 188 189 188 187 185 183 182 178 184 183 182 177
266 259 292 283 249 268 243 221 245 250 271 269 261 241 340 257 256 264 277 293 312 329 333 331 330 312 283 241 212 204 193 188 186 185 187 189 188 186 189 186 191 191 188 186
280 261 271 273 283 273 250 243 228 250 252 258 273 270 70 325 308 286 288 298 310 323 331 336 336 334 336 297 241 223 207 195 193 189 185 190 190 193 197 197 199 197 193 190
193 223 273 263 199 185 240 235 230 249 257 245 253 264 70 358 330 310 298 303 311 321 335 342 345 342 326 306 285 259 238 213 199 190 191 194 197 201 204 204 202 201 198 193
234 228 243 267 293 275 257 250 232 228 244 255 252 273 285 301 306 309 314 321 318 322 332 336 334 331 320 306 295 285 265 233 210 200 203 207 210 210 209 208 206 204 203 202
218 243 247 265 277 269 262 254 237 232 242 254 265 264 279 293 298 303 309 316 314 315 322 324 322 324 323 316 302 292 284 274 232 216 217 221 220 211 206 207 210 209 209 209
243 247 262 271 264 264 265 259 246 244 247 254 265 269 289 290 294 293 298 305 306 312 315 315 317 316 313 306 297 287 282 281 255 231 232 229 219 214 207 209 210 207 207 207
210 212 245 266 288 276 259 243 230 229 233 240 255 274 302 295 294 295 300 312 315 317 319 313 308 303 301 297 290 287 286 279 256 244 242 235 223 218 217 213 214 212 209 206
199 206 236 271 266 246 287 63 226 228 256 258 272 285 294 297 300 299 306 315 318 319 318 315 311 307 305 302 295 286 276 261 248 248 246 239 223 221 221 217 220 222 216 214
218 206 223 238 255 269 264 223 216 231 262 274 269 286 310 320 296 263 329 329 313 313 311 309 308 303 303 302 297 286 273 261 249 252 254 244 230 224 222 223 225 225 219 221
158 211 225 228 249 257 285 75 248 240 251 248 264 281 301 317 289 309 348 328 318 316 314 311 311 305 301 303 295 272 266 262 262 267 264 258 239 226 226 228 227 230 223 224
177 206 220 235 247 263 329 342 200 233 283 317 260 266 271 270 285 309 314 313 316 315 312 310 307 303 303 307 285 263 263 262 274 278 267 252 244 236 230 228 224 219 219 218
202 204 211 218 232 250 111 155 215 270 315 286 275 269 269 276 288 294 299 304 309 311 312 312 310 307 312 306 277 267 270 282 285 271 262 252 248 248 235 217 215 212 205 210
219 225 224 218 238 310 189 219 246 286 281 285 284 277 271 275 282 287 290 297 301 303 305 309 307 309 314 310 287 278 295 303 286 272 273 271 268 256 237 220 212 210 208 209
230 246 240 251 258 266 251 255 270 271 272 281 285 283 272 268 277 282 285 291 295 297 301 306 307 307 312 316 304 292 301 301 280 267 276 271 258 261 251 239 224 220 217 215
247 202 236 254 273 285 257 259 271 274 276 282 288 283 273 270 277 280 283 288 291 296 303 304 299 300 305 312 309 308 304 290 262 261 270 268 257 249 260 258 256 248 242 240
213 211 227 254 259 259 279 287 282 277 278 280 284 287 285 274 275 282 282 284 289 294 300 303 304 301 304 309 308 310 303 277 250 255 259 258 254 246 250 258 283 297 279 286